Time,TemperatureF,DewpointF,PressureIn,WindDirection,WindDirectionDegrees,WindSpeedMPH,WindSpeedGustMPH,Humidity,HourlyPrecipIn,Conditions,Clouds,dailyrainin,SoftwareType,DateUTC
2013-08-14 00:00:00,54.1,46.8,29.96,North,5,1.0,3.0,76,0.00,,,0.01,meteohub,2013-08-14 06:00:00,
2013-08-14 00:06:00,53.8,46.4,29.96,North,5,0.0,3.0,76,0.00,,,0.00,meteohub,2013-08-14 06:06:00,
2013-08-14 00:12:00,53.2,46.2,29.96,North,5,1.0,3.0,77,0.00,,,0.00,meteohub,2013-08-14 06:12:00,
2013-08-14 00:18:00,53.1,46.4,29.96,North,5,0.0,3.0,78,0.00,,,0.00,meteohub,2013-08-14 06:18:00,
2013-08-14 00:24:00,52.9,46.2,29.96,North,5,2.0,3.0,78,0.00,,,0.00,meteohub,2013-08-14 06:24:00,
2013-08-14 00:30:00,52.7,46.4,29.96,North,5,1.0,4.0,79,0.00,,,0.00,meteohub,2013-08-14 06:30:00,
2013-08-14 00:36:00,52.7,46.4,29.97,North,5,4.0,4.0,79,0.00,,,0.00,meteohub,2013-08-14 06:36:00,
2013-08-14 00:42:00,52.3,46.4,29.97,North,5,3.0,5.0,80,0.00,,,0.00,meteohub,2013-08-14 06:42:00,
2013-08-14 00:48:00,52.0,46.4,29.96,North,5,2.0,5.0,81,0.00,,,0.00,meteohub,2013-08-14 06:48:00,
2013-08-14 00:54:00,52.0,46.4,29.96,North,355,2.0,5.0,81,0.00,,,0.00,meteohub,2013-08-14 06:54:00,
2013-08-14 01:00:00,51.6,46.2,29.96,North,355,3.0,4.0,82,0.00,,,0.00,meteohub,2013-08-14 07:00:00,
2013-08-14 01:06:00,51.6,46.2,29.96,North,355,1.0,4.0,82,0.00,,,0.00,meteohub,2013-08-14 07:06:00,
2013-08-14 01:12:00,51.6,46.2,29.96,North,355,0.0,4.0,82,0.00,,,0.00,meteohub,2013-08-14 07:12:00,
2013-08-14 01:18:00,51.4,45.9,29.96,North,355,3.0,4.0,81,0.00,,,0.00,meteohub,2013-08-14 07:18:00,
2013-08-14 01:24:00,51.1,45.5,29.96,North,356,1.0,3.0,81,0.00,,,0.00,meteohub,2013-08-14 07:24:00,
2013-08-14 01:30:00,50.9,45.7,29.96,North,356,1.0,4.0,82,0.00,,,0.00,meteohub,2013-08-14 07:30:00,
2013-08-14 01:36:00,50.5,45.0,29.95,North,356,0.0,4.0,81,0.00,,,0.00,meteohub,2013-08-14 07:36:00,
2013-08-14 01:42:00,50.4,45.1,29.95,North,356,1.0,2.0,82,0.00,,,0.00,meteohub,2013-08-14 07:42:00,
2013-08-14 01:48:00,49.8,44.8,29.95,North,356,1.0,2.0,83,0.00,,,0.00,meteohub,2013-08-14 07:48:00,
2013-08-14 01:54:00,49.8,45.5,29.95,North,356,2.0,2.0,85,0.00,,,0.00,meteohub,2013-08-14 07:54:00,
2013-08-14 02:00:00,49.6,45.3,29.96,North,356,1.0,2.0,85,0.00,,,0.00,meteohub,2013-08-14 08:00:00,
2013-08-14 02:06:00,49.6,45.3,29.95,North,356,2.0,2.0,85,0.00,,,0.00,meteohub,2013-08-14 08:06:00,
2013-08-14 02:12:00,49.6,45.3,29.95,North,356,1.0,2.0,85,0.00,,,0.00,meteohub,2013-08-14 08:12:00,
2013-08-14 02:18:00,49.5,45.5,29.95,North,356,1.0,2.0,86,0.00,,,0.00,meteohub,2013-08-14 08:18:00,
2013-08-14 02:24:00,49.5,45.7,29.95,North,356,0.0,2.0,87,0.00,,,0.00,meteohub,2013-08-14 08:24:00,
2013-08-14 02:31:00,49.5,45.1,29.95,North,356,0.0,2.0,85,0.00,,,0.00,meteohub,2013-08-14 08:31:00,
2013-08-14 02:37:00,49.1,44.8,29.94,North,356,0.0,1.0,85,0.00,,,0.00,meteohub,2013-08-14 08:37:00,
2013-08-14 02:42:00,48.9,45.0,29.94,North,356,0.0,1.0,86,0.00,,,0.00,meteohub,2013-08-14 08:42:00,
2013-08-14 02:49:00,48.7,45.0,29.94,North,356,0.0,0.0,87,0.00,,,0.00,meteohub,2013-08-14 08:49:00,
2013-08-14 02:55:00,48.7,45.0,29.94,North,356,0.0,0.0,87,0.00,,,0.00,meteohub,2013-08-14 08:55:00,
2013-08-14 03:01:00,48.6,44.8,29.94,North,356,0.0,3.0,87,0.00,,,0.00,meteohub,2013-08-14 09:01:00,
2013-08-14 03:07:00,48.6,44.8,29.94,North,356,2.0,3.0,87,0.00,,,0.00,meteohub,2013-08-14 09:07:00,
2013-08-14 03:13:00,48.6,45.1,29.94,North,356,3.0,3.0,88,0.00,,,0.00,meteohub,2013-08-14 09:13:00,
2013-08-14 03:19:00,48.6,44.8,29.94,North,356,2.0,4.0,87,0.00,,,0.00,meteohub,2013-08-14 09:19:00,
2013-08-14 03:25:00,48.7,45.3,29.94,North,356,3.0,4.0,88,0.00,,,0.00,meteohub,2013-08-14 09:25:00,
2013-08-14 03:31:00,48.6,45.1,29.94,North,356,2.0,4.0,88,0.00,,,0.00,meteohub,2013-08-14 09:31:00,
2013-08-14 03:37:00,48.6,45.1,29.94,North,356,0.0,4.0,88,0.00,,,0.00,meteohub,2013-08-14 09:37:00,
2013-08-14 03:43:00,48.4,44.8,29.94,North,356,2.0,4.0,87,0.00,,,0.00,meteohub,2013-08-14 09:43:00,
2013-08-14 03:49:00,47.8,44.4,29.94,North,356,0.0,3.0,88,0.00,,,0.00,meteohub,2013-08-14 09:49:00,
2013-08-14 03:55:00,47.8,44.8,29.94,North,356,0.0,3.0,89,0.00,,,0.00,meteohub,2013-08-14 09:55:00,
2013-08-14 04:01:00,47.7,44.6,29.94,North,356,0.0,3.0,89,0.00,,,0.00,meteohub,2013-08-14 10:01:00,
2013-08-14 04:07:00,47.7,45.0,29.94,North,356,0.0,0.0,90,0.00,,,0.00,meteohub,2013-08-14 10:07:00,
2013-08-14 04:13:00,47.8,44.8,29.93,North,356,1.0,0.0,89,0.00,,,0.00,meteohub,2013-08-14 10:13:00,
2013-08-14 04:19:00,47.7,44.6,29.92,North,356,2.0,2.0,89,0.00,,,0.00,meteohub,2013-08-14 10:19:00,
2013-08-14 04:25:00,47.3,43.9,29.92,North,356,1.0,3.0,88,0.00,,,0.00,meteohub,2013-08-14 10:25:00,
2013-08-14 04:31:00,46.9,43.9,29.92,North,356,2.0,3.0,89,0.00,,,0.00,meteohub,2013-08-14 10:31:00,
2013-08-14 04:37:00,46.9,43.9,29.92,North,356,1.0,3.0,89,0.00,,,0.00,meteohub,2013-08-14 10:37:00,
2013-08-14 04:43:00,46.8,43.7,29.92,North,356,0.0,3.0,89,0.00,,,0.00,meteohub,2013-08-14 10:43:00,
2013-08-14 04:49:00,46.6,43.9,29.92,North,356,2.0,3.0,90,0.00,,,0.00,meteohub,2013-08-14 10:49:00,
2013-08-14 04:55:00,46.6,43.9,29.92,North,356,0.0,3.0,90,0.00,,,0.00,meteohub,2013-08-14 10:55:00,
2013-08-14 05:01:00,46.2,43.2,29.92,North,356,2.0,3.0,89,0.00,,,0.00,meteohub,2013-08-14 11:01:00,
2013-08-14 05:07:00,46.0,43.0,29.92,North,356,3.0,3.0,89,0.00,,,0.00,meteohub,2013-08-14 11:07:00,
2013-08-14 05:13:00,46.0,42.6,29.92,North,356,0.0,3.0,88,0.00,,,0.00,meteohub,2013-08-14 11:13:00,
2013-08-14 05:19:00,45.5,41.9,29.93,North,356,2.0,3.0,87,0.00,,,0.00,meteohub,2013-08-14 11:19:00,
2013-08-14 05:25:00,45.5,42.4,29.93,North,356,0.0,3.0,89,0.00,,,0.00,meteohub,2013-08-14 11:25:00,
2013-08-14 05:31:00,45.9,42.8,29.93,North,356,3.0,3.0,89,0.00,,,0.00,meteohub,2013-08-14 11:31:00,
2013-08-14 05:37:00,46.0,43.0,29.93,North,356,1.0,3.0,89,0.00,,,0.00,meteohub,2013-08-14 11:37:00,
2013-08-14 05:43:00,46.2,42.8,29.93,North,356,0.0,3.0,88,0.00,,,0.00,meteohub,2013-08-14 11:43:00,
2013-08-14 05:49:00,46.2,42.6,29.93,North,356,0.0,3.0,87,0.00,,,0.00,meteohub,2013-08-14 11:49:00,
2013-08-14 05:56:00,46.2,42.6,29.93,North,356,3.0,0.0,87,0.00,,,0.00,meteohub,2013-08-14 11:56:00,
2013-08-14 06:02:00,45.9,42.3,29.93,North,356,1.0,4.0,87,0.00,,,0.00,meteohub,2013-08-14 12:02:00,
2013-08-14 06:08:00,45.3,41.9,29.93,North,356,3.0,4.0,88,0.00,,,0.00,meteohub,2013-08-14 12:08:00,
2013-08-14 06:14:00,45.3,41.9,29.93,North,356,1.0,4.0,88,0.00,,,0.00,meteohub,2013-08-14 12:14:00,
2013-08-14 06:20:00,45.3,41.9,29.93,North,356,0.0,3.0,88,0.00,,,0.00,meteohub,2013-08-14 12:20:00,
2013-08-14 06:26:00,45.3,41.9,29.94,North,356,0.0,3.0,88,0.00,,,0.00,meteohub,2013-08-14 12:26:00,
2013-08-14 06:32:00,45.9,42.4,29.94,North,356,0.0,1.0,88,0.00,,,0.00,meteohub,2013-08-14 12:32:00,
2013-08-14 06:38:00,46.2,42.6,29.94,North,355,0.0,0.0,87,0.00,,,0.00,meteohub,2013-08-14 12:38:00,
2013-08-14 06:44:00,46.6,42.6,29.94,North,355,0.0,2.0,86,0.00,,,0.00,meteohub,2013-08-14 12:44:00,
2013-08-14 06:50:00,46.9,43.3,29.94,North,355,0.0,3.0,87,0.00,,,0.00,meteohub,2013-08-14 12:50:00,
2013-08-14 06:56:00,47.3,43.3,29.94,North,356,2.0,4.0,86,0.00,,,0.00,meteohub,2013-08-14 12:56:00,
2013-08-14 07:02:00,47.8,43.9,29.94,North,356,2.0,4.0,86,0.00,,,0.00,meteohub,2013-08-14 13:02:00,
2013-08-14 07:08:00,48.4,44.1,29.94,North,356,0.0,4.0,85,0.00,,,0.00,meteohub,2013-08-14 13:08:00,
2013-08-14 07:14:00,48.9,44.6,29.94,North,356,0.0,4.0,85,0.00,,,0.00,meteohub,2013-08-14 13:14:00,
2013-08-14 07:20:00,49.6,44.8,29.94,North,356,0.0,2.0,83,0.00,,,0.00,meteohub,2013-08-14 13:20:00,
2013-08-14 07:26:00,50.7,45.1,29.94,North,356,0.0,2.0,81,0.00,,,0.00,meteohub,2013-08-14 13:26:00,
2013-08-14 07:32:00,52.0,45.0,29.94,North,355,2.0,2.0,77,0.00,,,0.00,meteohub,2013-08-14 13:32:00,
2013-08-14 07:38:00,52.7,45.3,29.94,North,355,0.0,2.0,76,0.00,,,0.00,meteohub,2013-08-14 13:38:00,
2013-08-14 07:44:00,52.7,44.6,29.94,North,5,0.0,4.0,74,0.00,,,0.00,meteohub,2013-08-14 13:44:00,
2013-08-14 07:50:00,52.9,44.8,29.94,North,5,0.0,5.0,74,0.00,,,0.00,meteohub,2013-08-14 13:50:00,
2013-08-14 07:56:00,53.2,45.1,29.94,North,5,0.0,5.0,74,0.00,,,0.00,meteohub,2013-08-14 13:56:00,
2013-08-14 08:02:00,54.1,45.3,29.94,North,5,0.0,2.0,72,0.00,,,0.00,meteohub,2013-08-14 14:02:00,
2013-08-14 08:08:00,54.7,45.5,29.94,North,5,4.0,4.0,71,0.00,,,0.00,meteohub,2013-08-14 14:08:00,
2013-08-14 08:14:00,54.0,45.1,29.94,North,5,1.0,4.0,72,0.00,,,0.00,meteohub,2013-08-14 14:14:00,
2013-08-14 08:20:00,53.4,45.0,29.94,North,5,0.0,4.0,73,0.00,,,0.00,meteohub,2013-08-14 14:20:00,
2013-08-14 08:26:00,54.0,45.5,29.94,North,355,2.0,3.0,73,0.00,,,0.00,meteohub,2013-08-14 14:26:00,
2013-08-14 08:32:00,54.1,45.3,29.94,North,354,0.0,3.0,72,0.00,,,0.00,meteohub,2013-08-14 14:32:00,
2013-08-14 08:38:00,54.9,46.0,29.94,North,5,1.0,3.0,72,0.00,,,0.00,meteohub,2013-08-14 14:38:00,
2013-08-14 08:44:00,56.1,46.0,29.94,North,5,4.0,4.0,69,0.00,,,0.00,meteohub,2013-08-14 14:44:00,
2013-08-14 08:50:00,57.0,45.3,29.94,North,5,3.0,7.0,65,0.00,,,0.00,meteohub,2013-08-14 14:50:00,
2013-08-14 08:56:00,57.6,46.2,29.94,North,5,3.0,7.0,66,0.00,,,0.00,meteohub,2013-08-14 14:56:00,
2013-08-14 09:02:00,57.9,45.3,29.93,North,5,1.0,7.0,63,0.00,,,0.00,meteohub,2013-08-14 15:02:00,
2013-08-14 09:08:00,58.3,45.0,29.93,North,5,0.0,5.0,61,0.00,,,0.00,meteohub,2013-08-14 15:08:00,
2013-08-14 09:14:00,58.6,45.7,29.93,North,5,0.0,5.0,62,0.00,,,0.00,meteohub,2013-08-14 15:14:00,
2013-08-14 09:20:00,59.4,46.4,29.93,North,5,2.0,4.0,62,0.00,,,0.00,meteohub,2013-08-14 15:20:00,
2013-08-14 09:26:00,59.9,46.8,29.93,NE,35,4.0,4.0,62,0.00,,,0.00,meteohub,2013-08-14 15:26:00,
2013-08-14 09:32:00,60.1,46.2,29.94,ENE,69,1.0,5.0,60,0.00,,,0.00,meteohub,2013-08-14 15:32:00,
2013-08-14 09:39:00,60.3,46.4,29.93,SE,135,2.0,5.0,60,0.00,,,0.00,meteohub,2013-08-14 15:39:00,
2013-08-14 09:45:00,60.8,45.0,29.93,SE,135,1.0,8.0,56,0.00,,,0.00,meteohub,2013-08-14 15:45:00,
2013-08-14 09:51:00,61.5,44.2,29.93,ESE,122,1.0,8.0,53,0.00,,,0.00,meteohub,2013-08-14 15:51:00,
2013-08-14 09:57:00,62.2,45.0,29.93,ESE,122,2.0,7.0,53,0.00,,,0.00,meteohub,2013-08-14 15:57:00,
2013-08-14 10:03:00,63.0,44.6,29.93,East,91,7.0,7.0,51,0.00,,,0.00,meteohub,2013-08-14 16:03:00,
2013-08-14 10:09:00,63.7,43.7,29.92,East,90,2.0,7.0,48,0.00,,,0.00,meteohub,2013-08-14 16:09:00,
2013-08-14 10:15:00,64.2,46.2,29.93,East,90,1.0,7.0,52,0.00,,,0.00,meteohub,2013-08-14 16:15:00,
2013-08-14 10:21:00,64.9,44.8,29.92,NE,49,5.0,7.0,48,0.00,,,0.00,meteohub,2013-08-14 16:21:00,
2013-08-14 10:27:00,65.5,44.2,29.92,NE,50,3.0,7.0,46,0.00,,,0.00,meteohub,2013-08-14 16:27:00,
2013-08-14 10:33:00,65.8,43.9,29.92,East,98,5.0,7.0,45,0.00,,,0.00,meteohub,2013-08-14 16:33:00,
2013-08-14 10:39:00,66.6,44.6,29.92,East,100,0.0,8.0,45,0.00,,,0.00,meteohub,2013-08-14 16:39:00,
2013-08-14 10:45:00,67.5,43.0,29.91,East,97,7.0,8.0,41,0.00,,,0.00,meteohub,2013-08-14 16:45:00,
2013-08-14 10:51:00,67.8,45.7,29.91,ESE,117,4.0,8.0,45,0.00,,,0.00,meteohub,2013-08-14 16:51:00,
2013-08-14 10:57:00,68.2,46.6,29.91,ESE,121,7.0,8.0,46,0.00,,,0.00,meteohub,2013-08-14 16:57:00,
2013-08-14 11:03:00,68.2,45.5,29.91,ESE,121,5.0,9.0,44,0.00,,,0.00,meteohub,2013-08-14 17:03:00,
2013-08-14 11:09:00,68.4,42.4,29.91,East,90,7.0,9.0,39,0.00,,,0.00,meteohub,2013-08-14 17:09:00,
2013-08-14 11:15:00,69.3,42.6,29.90,East,93,7.0,9.0,38,0.00,,,0.00,meteohub,2013-08-14 17:15:00,
2013-08-14 11:21:00,70.3,41.4,29.90,East,99,6.0,11.0,35,0.00,,,0.00,meteohub,2013-08-14 17:21:00,
2013-08-14 11:28:00,70.9,40.3,29.90,ENE,70,4.0,11.0,33,0.00,,,0.00,meteohub,2013-08-14 17:28:00,
2013-08-14 11:34:00,71.2,39.9,29.90,East,94,8.0,11.0,32,0.00,,,0.00,meteohub,2013-08-14 17:34:00,
2013-08-14 11:40:00,71.4,37.6,29.90,South,170,4.0,10.0,29,0.00,,,0.00,meteohub,2013-08-14 17:40:00,
2013-08-14 11:46:00,72.0,39.7,29.90,ESE,121,4.0,10.0,31,0.00,,,0.00,meteohub,2013-08-14 17:46:00,
2013-08-14 11:52:00,71.8,38.7,29.90,SSW,210,8.0,9.0,30,0.00,,,0.00,meteohub,2013-08-14 17:52:00,
2013-08-14 11:58:00,71.6,37.6,29.90,ESE,114,7.0,9.0,29,0.00,,,0.00,meteohub,2013-08-14 17:58:00,
2013-08-14 12:04:00,71.2,36.5,29.90,South,178,6.0,12.0,28,0.00,,,0.00,meteohub,2013-08-14 18:04:00,
2013-08-14 12:10:00,70.7,34.2,29.90,South,176,4.0,9.0,26,0.00,,,0.00,meteohub,2013-08-14 18:10:00,
2013-08-14 12:16:00,70.7,36.9,29.89,South,176,4.0,9.0,29,0.00,,,0.00,meteohub,2013-08-14 18:16:00,
2013-08-14 12:22:00,70.9,35.2,29.89,South,170,4.0,7.0,27,0.00,,,0.00,meteohub,2013-08-14 18:22:00,
2013-08-14 12:28:00,71.4,33.8,29.89,SSW,201,4.0,9.0,25,0.00,,,0.00,meteohub,2013-08-14 18:28:00,
2013-08-14 12:34:00,71.6,34.9,29.89,SSW,210,8.0,9.0,26,0.00,,,0.00,meteohub,2013-08-14 18:34:00,
2013-08-14 12:40:00,72.5,32.5,29.89,SW,223,6.0,11.0,23,0.00,,,0.00,meteohub,2013-08-14 18:40:00,
2013-08-14 12:47:00,72.9,29.5,29.88,WSW,250,12.0,13.0,20,0.00,,,0.00,meteohub,2013-08-14 18:47:00,
2013-08-14 12:52:00,72.5,30.4,29.89,West,274,3.0,15.0,21,0.00,,,0.00,meteohub,2013-08-14 18:52:00,
2013-08-14 12:59:00,72.9,31.8,29.89,West,273,8.0,15.0,22,0.00,,,0.00,meteohub,2013-08-14 18:59:00,
2013-08-14 13:05:00,72.9,29.5,29.88,West,276,9.0,15.0,20,0.00,,,0.00,meteohub,2013-08-14 19:05:00,
2013-08-14 13:12:00,72.9,28.2,29.88,WSW,243,11.0,14.0,19,0.00,,,0.00,meteohub,2013-08-14 19:12:00,
2013-08-14 13:18:00,72.5,29.1,29.87,WSW,245,8.0,18.0,20,0.00,,,0.00,meteohub,2013-08-14 19:18:00,
2013-08-14 13:24:00,72.7,29.3,29.88,WSW,243,7.0,18.0,20,0.00,,,0.00,meteohub,2013-08-14 19:24:00,
2013-08-14 13:31:00,73.2,34.3,29.88,SW,226,11.0,13.0,24,0.00,,,0.00,meteohub,2013-08-14 19:31:00,
2013-08-14 13:36:00,72.7,33.8,29.88,SW,220,9.0,14.0,24,0.00,,,0.00,meteohub,2013-08-14 19:36:00,
2013-08-14 13:42:00,72.7,34.9,29.87,SSW,211,10.0,15.0,25,0.00,,,0.00,meteohub,2013-08-14 19:42:00,
2013-08-14 13:49:00,72.9,29.5,29.87,WNW,283,14.0,15.0,20,0.00,,,0.00,meteohub,2013-08-14 19:49:00,
2013-08-14 13:55:00,72.3,25.0,29.87,West,276,8.0,20.0,17,0.00,,,0.00,meteohub,2013-08-14 19:55:00,
2013-08-14 14:01:00,71.2,28.0,29.86,WSW,253,19.0,19.0,20,0.00,,,0.00,meteohub,2013-08-14 20:01:00,
2013-08-14 14:07:00,70.3,27.3,29.87,WSW,241,9.0,21.0,20,0.00,,,0.00,meteohub,2013-08-14 20:07:00,
2013-08-14 14:13:00,70.9,28.9,29.87,SW,226,10.0,21.0,21,0.00,,,0.00,meteohub,2013-08-14 20:13:00,
2013-08-14 14:22:00,73.2,34.3,29.86,SW,224,10.0,18.0,24,0.00,,,0.00,meteohub,2013-08-14 20:22:00,
2013-08-14 14:28:00,73.8,33.6,29.86,SW,217,10.0,18.0,23,0.00,,,0.00,meteohub,2013-08-14 20:28:00,
2013-08-14 14:35:00,72.0,32.2,29.86,SSW,210,7.0,15.0,23,0.00,,,0.00,meteohub,2013-08-14 20:35:00,
2013-08-14 14:41:00,71.2,29.3,29.85,WSW,257,13.0,15.0,21,0.00,,,0.00,meteohub,2013-08-14 20:41:00,
2013-08-14 14:47:00,71.1,26.8,29.85,WSW,249,14.0,16.0,19,0.00,,,0.00,meteohub,2013-08-14 20:47:00,
2013-08-14 14:53:00,70.3,27.3,29.84,WSW,237,17.0,20.0,20,0.00,,,0.00,meteohub,2013-08-14 20:53:00,
2013-08-14 14:59:00,70.5,27.5,29.84,WSW,243,8.0,21.0,20,0.00,,,0.00,meteohub,2013-08-14 20:59:00,
2013-08-14 15:05:00,73.0,25.7,29.84,WSW,237,9.0,21.0,17,0.00,,,0.00,meteohub,2013-08-14 21:05:00,
2013-08-14 15:11:00,74.7,28.4,29.84,SSW,212,11.0,18.0,18,0.00,,,0.00,meteohub,2013-08-14 21:11:00,
2013-08-14 15:17:00,75.7,29.3,29.83,SSW,208,9.0,14.0,18,0.00,,,0.00,meteohub,2013-08-14 21:17:00,
2013-08-14 15:23:00,76.5,29.8,29.83,SSW,212,3.0,14.0,18,0.00,,,0.00,meteohub,2013-08-14 21:23:00,
2013-08-14 15:29:00,77.4,29.1,29.83,NNW,345,8.0,14.0,17,0.00,,,0.00,meteohub,2013-08-14 21:29:00,
2013-08-14 15:36:00,78.3,28.4,29.83,WNW,300,3.0,16.0,16,0.00,,,0.00,meteohub,2013-08-14 21:36:00,
2013-08-14 15:42:00,78.3,26.8,29.84,NNE,14,7.0,16.0,15,0.00,,,0.00,meteohub,2013-08-14 21:42:00,
2013-08-14 15:48:00,77.5,26.2,29.84,NNE,26,4.0,12.0,15,0.00,,,0.00,meteohub,2013-08-14 21:48:00,
2013-08-14 15:54:00,76.5,27.0,29.84,NNW,342,1.0,8.0,16,0.00,,,0.00,meteohub,2013-08-14 21:54:00,
2013-08-14 16:00:00,75.2,31.5,29.83,SW,231,8.0,13.0,20,0.00,,,0.00,meteohub,2013-08-14 22:00:00,
2013-08-14 16:06:00,75.9,30.7,29.83,WNW,299,11.0,17.0,19,0.00,,,0.00,meteohub,2013-08-14 22:06:00,
2013-08-14 16:12:00,76.3,29.7,29.83,WSW,245,5.0,17.0,18,0.00,,,0.00,meteohub,2013-08-14 22:12:00,
2013-08-14 16:18:00,76.5,28.4,29.83,West,271,6.0,19.0,17,0.00,,,0.00,meteohub,2013-08-14 22:18:00,
2013-08-14 16:24:00,77.2,28.9,29.83,WSW,243,9.0,19.0,17,0.00,,,0.00,meteohub,2013-08-14 22:24:00,
2013-08-14 16:31:00,76.8,31.5,29.83,SW,223,6.0,16.0,19,0.00,,,0.00,meteohub,2013-08-14 22:31:00,
2013-08-14 16:37:00,76.1,26.6,29.83,NE,53,8.0,15.0,16,0.00,,,0.00,meteohub,2013-08-14 22:37:00,
2013-08-14 16:43:00,74.8,31.1,29.84,North,0,12.0,15.0,20,0.00,,,0.00,meteohub,2013-08-14 22:43:00,
2013-08-14 16:49:00,73.6,31.3,29.84,NNW,336,7.0,13.0,21,0.00,,,0.00,meteohub,2013-08-14 22:49:00,
2013-08-14 16:55:00,72.5,32.5,29.83,North,5,14.0,20.0,23,0.00,,,0.00,meteohub,2013-08-14 22:55:00,
2013-08-14 17:01:00,71.8,33.1,29.84,North,5,12.0,21.0,24,0.00,,,0.00,meteohub,2013-08-14 23:01:00,
2013-08-14 17:07:00,71.1,32.4,29.84,NNW,342,13.0,21.0,24,0.00,,,0.00,meteohub,2013-08-14 23:07:00,
2013-08-14 17:13:00,70.5,33.1,29.84,NNW,338,12.0,21.0,25,0.00,,,0.00,meteohub,2013-08-14 23:13:00,
2013-08-14 17:19:00,70.2,33.6,29.85,NNE,17,12.0,19.0,26,0.00,,,0.00,meteohub,2013-08-14 23:19:00,
2013-08-14 17:25:00,69.8,34.3,29.85,NNE,24,14.0,20.0,27,0.00,,,0.00,meteohub,2013-08-14 23:25:00,
2013-08-14 17:31:00,69.4,33.1,29.84,NE,34,14.0,22.0,26,0.00,,,0.00,meteohub,2013-08-14 23:31:00,
2013-08-14 17:37:00,69.1,33.6,29.85,North,0,16.0,22.0,27,0.00,,,0.00,meteohub,2013-08-14 23:37:00,
2013-08-14 17:43:00,68.5,34.2,29.85,North,351,10.0,22.0,28,0.00,,,0.00,meteohub,2013-08-14 23:43:00,
2013-08-14 17:49:00,68.9,34.5,29.85,NE,40,11.0,21.0,28,0.00,,,0.00,meteohub,2013-08-14 23:49:00,
2013-08-14 17:55:00,69.3,34.7,29.85,NNE,21,12.0,20.0,28,0.00,,,0.00,meteohub,2013-08-14 23:55:00,
2013-08-14 18:01:00,68.5,35.1,29.85,NE,36,10.0,20.0,29,0.00,,,0.00,meteohub,2013-08-15 00:01:00,
2013-08-14 18:07:00,68.2,34.7,29.85,NNE,18,5.0,20.0,29,0.00,,,0.00,meteohub,2013-08-15 00:07:00,
2013-08-14 18:13:00,67.8,34.3,29.85,NNE,29,3.0,17.0,29,0.00,,,0.00,meteohub,2013-08-15 00:13:00,
2013-08-14 18:19:00,67.8,35.2,29.85,NE,37,0.0,14.0,30,0.00,,,0.00,meteohub,2013-08-15 00:19:00,
2013-08-14 18:25:00,67.8,36.1,29.85,SSE,162,4.0,8.0,31,0.00,,,0.00,meteohub,2013-08-15 00:25:00,
2013-08-14 18:31:00,67.3,37.9,29.85,SSE,163,5.0,7.0,34,0.00,,,0.00,meteohub,2013-08-15 00:31:00,
2013-08-14 18:37:00,67.1,37.0,29.85,SSW,203,3.0,7.0,33,0.00,,,0.00,meteohub,2013-08-15 00:37:00,
2013-08-14 18:43:00,67.5,37.4,29.85,SSW,203,1.0,7.0,33,0.00,,,0.00,meteohub,2013-08-15 00:43:00,
2013-08-14 18:49:00,67.3,36.5,29.85,SSW,203,1.0,7.0,32,0.00,,,0.00,meteohub,2013-08-15 00:49:00,
2013-08-14 18:55:00,67.6,36.7,29.85,SSW,203,3.0,4.0,32,0.00,,,0.00,meteohub,2013-08-15 00:55:00,
2013-08-14 19:01:00,67.8,36.1,29.85,SSW,203,3.0,4.0,31,0.00,,,0.00,meteohub,2013-08-15 01:01:00,
2013-08-14 19:07:00,68.2,36.3,29.85,SSW,203,3.0,5.0,31,0.00,,,0.00,meteohub,2013-08-15 01:07:00,
2013-08-14 19:13:00,68.2,36.3,29.85,SSW,203,1.0,6.0,31,0.00,,,0.00,meteohub,2013-08-15 01:13:00,
2013-08-14 19:19:00,68.2,37.2,29.85,SSW,203,3.0,6.0,32,0.00,,,0.00,meteohub,2013-08-15 01:19:00,
2013-08-14 19:25:00,67.8,36.9,29.86,SSW,203,3.0,4.0,32,0.00,,,0.00,meteohub,2013-08-15 01:25:00,
2013-08-14 19:31:00,67.1,36.3,29.86,SSW,203,2.0,4.0,32,0.00,,,0.00,meteohub,2013-08-15 01:31:00,
2013-08-14 19:37:00,66.4,35.6,29.86,SSW,203,2.0,4.0,32,0.00,,,0.00,meteohub,2013-08-15 01:37:00,
2013-08-14 19:44:00,65.7,35.8,29.86,SSW,203,1.0,4.0,33,0.00,,,0.00,meteohub,2013-08-15 01:44:00,
2013-08-14 19:50:00,64.9,36.0,29.86,SSW,203,1.0,4.0,34,0.00,,,0.00,meteohub,2013-08-15 01:50:00,
2013-08-14 19:56:00,64.2,36.0,29.86,SSW,203,3.0,4.0,35,0.00,,,0.00,meteohub,2013-08-15 01:56:00,
2013-08-14 20:02:00,63.5,36.1,29.87,SSW,203,0.0,4.0,36,0.00,,,0.00,meteohub,2013-08-15 02:02:00,
2013-08-14 20:08:00,63.0,35.6,29.87,SSW,203,0.0,4.0,36,0.00,,,0.00,meteohub,2013-08-15 02:08:00,
2013-08-14 20:14:00,62.4,35.1,29.87,SSW,203,1.0,4.0,36,0.00,,,0.00,meteohub,2013-08-15 02:14:00,
2013-08-14 20:20:00,62.4,35.8,29.87,SSW,203,1.0,2.0,37,0.00,,,0.00,meteohub,2013-08-15 02:20:00,
2013-08-14 20:26:00,61.9,35.2,29.87,SSW,203,2.0,3.0,37,0.00,,,0.00,meteohub,2013-08-15 02:26:00,
2013-08-14 20:32:00,61.3,35.6,29.88,SSW,203,3.0,4.0,38,0.00,,,0.00,meteohub,2013-08-15 02:32:00,
2013-08-14 20:38:00,61.0,35.2,29.88,SSW,203,2.0,4.0,38,0.00,,,0.00,meteohub,2013-08-15 02:38:00,
2013-08-14 20:44:00,60.8,35.1,29.88,SSW,203,4.0,4.0,38,0.00,,,0.00,meteohub,2013-08-15 02:44:00,
2013-08-14 20:50:00,60.4,35.4,29.88,SSW,203,3.0,5.0,39,0.00,,,0.00,meteohub,2013-08-15 02:50:00,
2013-08-14 20:56:00,60.3,35.8,29.89,SSW,203,6.0,6.0,40,0.00,,,0.00,meteohub,2013-08-15 02:56:00,
2013-08-14 21:02:00,59.5,35.8,29.89,SSW,213,3.0,7.0,41,0.00,,,0.00,meteohub,2013-08-15 03:02:00,
2013-08-14 21:08:00,59.0,35.4,29.89,SW,214,2.0,7.0,41,0.00,,,0.00,meteohub,2013-08-15 03:08:00,
2013-08-14 21:14:00,58.5,35.4,29.90,SW,214,2.0,7.0,42,0.00,,,0.00,meteohub,2013-08-15 03:14:00,
2013-08-14 21:20:00,58.5,34.9,29.90,SW,218,3.0,4.0,41,0.00,,,0.00,meteohub,2013-08-15 03:20:00,
2013-08-14 21:26:00,58.1,35.8,29.90,SW,226,2.0,5.0,43,0.00,,,0.00,meteohub,2013-08-15 03:26:00,
2013-08-14 21:32:00,57.4,35.1,29.90,WSW,241,3.0,5.0,43,0.00,,,0.00,meteohub,2013-08-15 03:32:00,
2013-08-14 21:38:00,57.7,32.9,29.91,WSW,243,2.0,5.0,39,0.00,,,0.00,meteohub,2013-08-15 03:38:00,
2013-08-14 21:44:00,59.5,34.0,29.91,WSW,243,0.0,5.0,38,0.00,,,0.00,meteohub,2013-08-15 03:44:00,
2013-08-14 21:50:00,59.5,34.0,29.91,WSW,243,2.0,4.0,38,0.00,,,0.00,meteohub,2013-08-15 03:50:00,
2013-08-14 21:56:00,59.2,33.6,29.91,WSW,243,1.0,4.0,38,0.00,,,0.00,meteohub,2013-08-15 03:56:00,
2013-08-14 22:02:00,59.0,33.4,29.91,WSW,243,0.0,3.0,38,0.00,,,0.00,meteohub,2013-08-15 04:02:00,
2013-08-14 22:05:00,58.8,34.0,29.91,WSW,243,1.0,3.0,39,0.00,,,0.00,meteohub,2013-08-15 04:05:00,
2013-08-14 22:11:00,58.6,34.3,29.91,WSW,243,1.0,4.0,40,0.00,,,0.00,meteohub,2013-08-15 04:11:00,
2013-08-14 22:17:00,58.3,34.7,29.91,WSW,243,2.0,4.0,41,0.00,,,0.00,meteohub,2013-08-15 04:17:00,
2013-08-14 22:23:00,57.7,34.2,29.91,WSW,243,3.0,4.0,41,0.00,,,0.00,meteohub,2013-08-15 04:23:00,
2013-08-14 22:29:00,57.6,34.7,29.91,WSW,243,3.0,4.0,42,0.00,,,0.00,meteohub,2013-08-15 04:29:00,
2013-08-14 22:32:00,57.6,34.7,29.91,WSW,243,4.0,5.0,42,0.00,,,0.00,meteohub,2013-08-15 04:32:00,
2013-08-14 22:38:00,57.4,35.1,29.91,West,264,3.0,5.0,43,0.00,,,0.00,meteohub,2013-08-15 04:38:00,
2013-08-14 22:44:00,57.0,35.2,29.92,West,270,0.0,6.0,44,0.00,,,0.00,meteohub,2013-08-15 04:44:00,
2013-08-14 22:50:00,56.8,36.3,29.92,West,271,4.0,5.0,46,0.00,,,0.00,meteohub,2013-08-15 04:50:00,
2013-08-14 22:56:00,56.8,36.3,29.92,WNW,301,3.0,6.0,46,0.00,,,0.00,meteohub,2013-08-15 04:56:00,
2013-08-14 23:02:00,56.8,36.9,29.92,WNW,301,4.0,6.0,47,0.00,,,0.00,meteohub,2013-08-15 05:02:00,
2013-08-14 23:08:00,56.5,37.0,29.93,WNW,302,2.0,6.0,48,0.00,,,0.00,meteohub,2013-08-15 05:08:00,
2013-08-14 23:15:00,56.7,38.3,29.92,NW,317,4.0,5.0,50,0.00,,,0.00,meteohub,2013-08-15 05:15:00,
2013-08-14 23:21:00,56.8,39.4,29.93,NW,317,3.0,6.0,52,0.00,,,0.00,meteohub,2013-08-15 05:21:00,
2013-08-14 23:27:00,56.7,39.7,29.93,NW,317,1.0,6.0,53,0.00,,,0.00,meteohub,2013-08-15 05:27:00,
2013-08-14 23:33:00,56.5,39.6,29.93,NW,317,1.0,6.0,53,0.00,,,0.00,meteohub,2013-08-15 05:33:00,
2013-08-14 23:39:00,56.1,40.6,29.93,NW,317,0.0,6.0,56,0.00,,,0.00,meteohub,2013-08-15 05:39:00,
2013-08-14 23:45:00,55.9,41.4,29.93,NW,317,2.0,3.0,58,0.00,,,0.00,meteohub,2013-08-15 05:45:00,
2013-08-14 23:51:00,55.8,41.7,29.93,NW,317,2.0,3.0,59,0.00,,,0.00,meteohub,2013-08-15 05:51:00,
2013-08-14 23:57:00,55.2,41.5,29.93,NW,317,2.0,3.0,60,0.00,,,0.00,meteohub,2013-08-15 05:57:00,